Reflectivity
-20 -20 -20 -20 -20 -20 -20 -20 -20 -20 -20 -20 -20 -20 -20 -20 -20 -20 -20 -20 -20 -20 -20 -20 -20 -20 -20 -20 -20 -20 -20 -20 -20 -20 -20 -20 -20 -20 -20 -20 -20 -20 -20 -20 -20 -20 -20 -20 -20
-20 -20 -20 -20 -20 -20 -20 -20 -20 -20 -20 -20 -20 -20 -20 -20 -20 -20 -20 -20 -20 -20 -20 -20 -20 -20 -20 -20 -20 -20 -20 -20 -20 -20 -20 -20 -20 -20 -20 -20 -20 -20 -20 -20 -20 -20 -20 -20 -20
-20 -20 -20 -20 -20 -20 -20 -20 -20 -20 -20 -20 -20 -20 -20 -20 -20 -20 -20 -20 -20 -20 -20 -20 -20 -20 -20 -20 -20 -20 -20 -20 -20 -20 -20 -20 -20 -20 -20 -20 -20 -20 -20 -20 -20 -20 -20 -20 -20
-20 -20 -20 -20 -20 -20 -20 -20 -20 -20 -20 -20 -20 -20 -20 -20 -20 -20 -20 -20 -20 -20 -20 -20 -20 -20 -20 -20 -20 -20 -20 -20 -20 -20 -20 -20 -20 -20 -20 -20 -20 -20 -20 -20 -20 -20 -20 -20 -20
-20 -20 -20 -20 -20 -20 -20 -20 -20 -20 -20 -20 -20 -20 -20 -20 -20 -20 -20 -20 -20 -20 -20 -20 -20 4 -20 -20 -20 -20 -20 -20 -20 -20 -20 -20 -20 -17 -20 -20 -20 -5 -20 -20 -20 -20 -20 -20 -20
-20 -20 -20 -20 -20 -20 -20 -20 -20 -20 -20 -20 -20 -20 -20 -20 -20 -20 -20 -20 -20 -20 -20 -20 -20 -5 8 -20 -20 -20 -20 -20 -20 -20 -20 -20 -20 -20 -20 -20 -20 -7 -20 -20 -20 -20 -20 -20 -20
-20 -20 -20 -20 -20 -20 -20 -20 -20 -20 -20 -20 -20 -20 -20 -20 -20 -20 -20 -20 -20 -20 -20 -20 -20 -7 8 -12 -20 -20 -20 -20 -20 -20 -20 -20 -20 -20 -20 -20 -20 -20 -20 -20 -20 -20 -20 -20 -20
-20 -20 -20 -20 -20 -20 -20 -20 -20 -20 -20 -20 -20 -20 -20 -20 -20 -20 -20 -20 -20 -20 -20 -20 -20 -20 -20 -19 4 11 -20 -20 -20 -20 -20 -20 -20 -20 -20 -20 -20 -18 -20 -20 -20 -20 -20 -20 -20
-20 -20 -20 -20 -20 -20 -20 -20 -20 -20 -20 -20 -20 -20 -20 -20 -20 -20 -20 -20 -20 -20 -20 -20 -20 -20 -20 -0 -2 7 -20 -20 -20 -20 -20 -20 -20 -20 -20 18 -7 -20 -20 -20 -20 -20 -20 7 -20
-20 -20 -20 -20 -20 -20 -20 -20 -20 -20 -20 -20 -20 -20 -20 -20 -20 -20 -20 -20 -20 -20 -20 -20 -20 -20 10 4 12 -20 -9 -20 -20 -20 -20 -20 -20 -20 9 22 -20 -20 -20 -20 -20 -20 2 9 -20
-20 -20 -20 -20 -20 -20 -20 -20 -20 -20 -18 -20 -20 -20 -20 -20 -20 -20 -20 -20 -20 -20 -20 -20 -20 -20 -20 -17 12 17 21 -2 -7 0 -4 -20 15 -20 24 22 -20 -7 -18 -20 -20 -19 -18 -20 -20
-20 -20 -20 -20 -20 -20 -20 -20 -20 -20 -19 -13 -20 -20 -20 -20 -20 -20 -20 -20 -20 -20 -20 -20 -20 -20 -20 -10 8 -0 0 3 2 -10 -5 -12 22 -15 22 25 11 -1 7 -18 -20 -20 -20 -12 -13
-20 -20 -20 -20 -20 -20 -20 -20 -20 -20 -20 -20 -20 -20 -20 -20 -20 -20 -20 -20 -20 -20 -20 -20 -20 -20 -20 -20 6 2 8 13 -15 0 -17 -18 -11 3 7 -19 11 22 22 28 -12 -16 7 -20 -20
-20 -20 -20 -20 -20 -20 -20 -20 -20 -20 -20 -20 -20 -20 -20 -20 -20 -20 -20 -20 -20 -20 -20 -20 -20 -20 -20 -20 -19 6 -5 4 7 5 1 5 -4 -19 1 14 20 -9 28 29 18 -13 10 -20 -20
-20 -20 -20 -20 -20 -20 -20 -20 -20 -20 -20 -20 -20 -20 -20 -20 -20 -20 -20 -20 -20 -20 -20 -20 -20 -3 -1 -20 -20 -1 -9 -19 14 -20 -20 -15 -2 26 -5 33 30 26 24 25 21 -18 -20 -14 -9
-20 -20 -20 -20 -20 -20 -20 -20 -20 -20 -20 -20 -20 -20 -20 -20 -20 -20 -20 -20 -20 -20 -20 -20 -20 -20 4 -13 -20 2 -20 -20 23 -1 -2 -1 8 13 32 34 38 32 26 23 26 6 -6 7 2
-20 -20 -20 -20 -20 -20 -20 -20 -20 -20 -20 -20 -20 -20 -20 -20 -20 -20 -20 -20 -20 -20 -20 -20 -20 -20 -20 18 22 18 16 -8 18 11 24 2 -14 7 32 24 36 40 39 29 32 20 12 22 21
-20 -20 -20 -20 -20 -20 -20 -20 -20 -20 -20 -20 -20 -20 -20 -20 -20 -20 -20 -20 -20 -20 -20 -20 -20 -20 -0 2 12 8 -6 22 -17 0 9 8 32 15 31 2 -12 28 41 24 33 46 40 26 21
-20 -20 -20 -20 -20 -20 -20 -20 -20 -20 -20 -20 -20 -20 -20 -20 -20 -20 -20 -20 -20 -20 -20 -20 -14 5 23 22 22 10 8 7 31 9 -3 -9 -15 24 26 28 -20 19 25 0 21 43 46 42 29
-20 -20 -20 -20 -20 -20 -20 -20 -20 -20 -20 -20 -20 -20 -20 -20 -20 -20 -20 -20 -20 -20 -20 -20 -14 1 16 27 17 21 16 19 25 17 20 15 5 3 -4 27 1 10 4 -20 1 10 32 48 40
-20 -20 -20 -20 -20 -20 -20 -20 -20 -20 -20 -20 -20 -20 -20 -20 -20 -20 -20 -20 -20 -20 -20 -20 -20 -7 3 17 25 25 29 31 17 10 22 10 1 28 21 17 11 6 1 1 25 27 23 37 36
-20 -20 -20 -20 -20 -20 -20 -20 -20 -20 -20 -20 -20 -20 -20 -20 -20 -20 -20 -20 -20 -20 -20 -20 -20 -20 11 13 22 24 13 15 18 -19 -16 -3 16 18 -13 -4 8 -7 -4 30 27 27 15 29 40
-20 -20 -20 -20 -20 -20 -20 -20 -20 -20 -20 -20 -20 -20 -20 -20 -20 -20 -20 -20 -20 -20 -20 -20 -20 -20 -20 4 6 16 22 15 -5 -2 -20 -13 22 -4 26 0 15 3 28 34 34 41 35 25 37
-20 -20 -20 -20 -20 -20 -20 -20 -20 -20 -20 -20 -20 -20 -20 -20 -20 -20 -20 -20 -20 -20 -20 -20 -20 -20 -20 -20 -20 -18 -8 21 1 14 15 1 -20 -14 16 15 -6 10 11 27 34 28 17 22 35
-20 -20 -20 -20 -20 -20 -20 -20 -20 -20 -20 -20 -20 -20 -20 -20 -20 -20 -20 -20 -20 -20 -20 -20 -20 -20 -20 -13 -14 -7 -14 -12 0 11 1 -19 -20 -15 -3 22 4 10 18 4 36 16 4 9 25
-20 -20 -20 -20 -20 -20 -20 -20 -20 -20 -20 -20 -20 -20 -20 -20 -20 -20 -20 -20 -20 -20 -20 -20 -20 -18 -10 -20 -15 -7 18 16 15 13 22 20 2 3 9 6 13 -20 -20 -20 19 6 1 8 11
-20 -20 -20 -20 -20 -20 -20 -20 -20 -20 -20 -20 -20 -20 -20 -20 -20 -20 -20 -17 -3 9 14 22 1 9 17 13 -14 -8 22 7 -14 -20 2 -18 4 5 9 18 22 7 16 -11 9 27 27 15 9
-20 -20 -20 -20 1 -20 -20 -20 -20 -20 -20 -20 -20 -20 -20 -20 0 11 14 12 14 25 22 17 26 15 -5 -20 -20 -18 -20 -20 -20 -20 -20 3 6 5 3 23 24 34 24 15 -1 4 15 7 15
-20 -20 -14 -4 7 -8 -6 -20 -20 -20 -20 -20 -20 -20 -10 6 10 11 3 3 4 17 17 19 24 14 -19 -20 -20 -20 -20 -9 3 3 -12 -12 8 19 4 20 22 19 21 19 33 27 5 17 -0
-20 -20 -8 16 7 4 12 -10 -20 -20 -20 -20 -4 9 9 8 0 -8 -9 -11 -20 -20 -20 -20 -20 -20 -20 -20 -20 -20 -20 -20 -20 -20 -20 -20 -20 4 15 7 4 19 21 10 14 22 13 10 9
Wind_Speed
6 4 3 5 6 6 4 6 3 5 5 2 2 3 6 4 6 6 3 7 6 11 12 14 17 18 17 16 15 14 17 18 19 19 19 20 20 19 18 17 15 16 18 19 19 19 18 18 17
5 3 5 3 7 3 6 4 5 4 6 9 4 3 3 2 1 0 3 6 8 12 10 12 16 17 18 16 16 16 15 16 18 19 19 19 20 19 19 18 17 17 18 18 17 18 18 18 15
5 4 4 5 4 5 4 4 7 12 9 5 4 1 3 4 1 4 6 11 10 10 11 12 17 17 19 18 18 18 18 17 17 18 19 20 20 19 19 17 16 17 18 18 17 16 15 14 14
3 4 5 5 4 6 5 8 6 11 7 2 2 3 2 1 3 5 6 11 13 10 9 12 17 18 18 19 19 21 20 18 18 19 19 19 20 20 19 17 16 17 16 18 17 15 14 14 15
5 3 4 1 5 5 6 6 4 5 6 4 5 4 3 4 4 5 6 6 11 9 7 11 14 21 22 19 18 18 19 21 21 20 20 21 20 19 17 16 15 16 17 17 15 15 14 14 16
4 3 4 3 4 5 7 6 2 4 4 11 4 2 5 3 2 4 5 6 6 10 8 10 15 21 22 17 17 16 17 18 19 19 19 20 20 19 18 16 15 15 14 14 13 12 13 14 15
7 4 4 3 4 5 5 2 4 5 5 8 2 3 6 6 1 5 4 5 5 5 6 6 8 11 16 15 15 14 14 16 16 17 17 18 18 17 17 18 18 18 16 13 11 12 10 14 14
6 5 4 4 3 6 4 4 2 3 6 5 5 5 6 4 8 8 6 5 4 4 5 7 9 9 12 11 17 18 14 16 17 17 18 17 17 17 18 18 20 18 14 15 13 11 13 16 14
4 4 2 5 4 6 3 6 2 3 5 4 4 4 6 2 8 7 4 2 4 5 4 6 12 10 10 11 12 15 18 17 17 16 15 12 9 12 16 12 19 20 19 15 13 12 15 20 17
4 4 9 7 5 5 5 4 9 6 12 5 8 4 0 4 6 10 9 12 11 12 12 10 13 13 11 9 11 11 11 9 9 10 11 9 9 9 10 12 20 21 20 18 16 15 18 18 9
4 6 5 5 7 6 6 9 4 2 7 6 11 12 2 6 8 10 12 11 18 14 12 16 15 16 14 10 7 6 6 7 8 11 9 8 6 6 5 5 7 7 14 8 9 14 10 11 8
2 7 5 5 4 2 4 4 7 8 14 10 12 8 7 9 11 13 13 13 8 13 16 15 14 14 13 10 7 7 8 7 7 9 12 8 7 9 7 6 6 9 6 8 8 7 8 8 8
4 5 6 6 8 6 4 8 9 14 12 8 11 9 11 12 12 12 15 9 8 11 14 18 15 15 13 13 9 8 9 8 9 10 12 10 9 8 8 8 7 7 8 9 9 9 9 10 9
3 5 7 6 8 6 6 8 6 5 2 9 6 9 8 8 11 9 5 8 8 13 14 13 16 15 13 14 15 10 9 8 8 8 10 13 10 9 8 8 9 9 8 9 9 11 11 10 10
4 7 8 5 3 4 5 7 6 9 7 10 9 9 10 13 14 10 8 9 8 11 8 14 15 14 15 15 13 10 9 8 8 9 12 13 11 12 11 8 7 8 8 8 7 8 9 9 8
5 2 6 5 4 3 6 12 6 10 7 11 12 11 9 7 6 7 8 8 7 9 12 10 12 15 16 16 12 10 9 9 7 7 7 11 11 11 9 8 5 6 7 8 9 10 10 9 10
5 4 6 9 5 4 2 9 14 16 8 7 7 8 8 8 13 10 10 12 11 9 8 10 12 15 15 12 9 9 8 7 7 7 8 11 11 11 10 7 5 3 6 4 8 10 12 12 9
3 4 6 6 4 7 16 15 15 8 7 6 7 8 8 9 10 10 11 12 9 8 4 2 6 12 12 9 7 6 6 7 8 9 9 10 10 14 11 8 10 10 7 9 2 3 7 10 12
2 3 10 12 12 3 14 14 14 2 6 6 6 7 8 8 9 8 10 11 12 13 13 9 3 3 4 6 7 7 8 7 6 8 9 9 10 11 9 7 10 10 12 15 16 7 2 4 11
5 6 12 11 11 6 10 11 8 1 4 2 4 5 6 7 9 11 11 12 12 12 11 10 8 10 6 1 2 3 3 2 2 2 3 4 8 7 8 8 9 12 10 13 17 17 9 3 10
4 6 5 10 6 4 7 7 6 1 3 2 3 3 4 6 8 10 12 9 10 12 12 9 8 7 6 5 2 3 3 1 2 1 2 2 4 8 12 12 12 13 12 13 19 19 22 11 11
5 9 12 7 2 5 3 16 5 8 7 2 5 7 7 8 7 7 9 10 9 8 8 8 7 6 4 4 4 1 2 1 3 2 2 2 5 8 13 14 14 13 10 14 14 13 15 13 13
11 5 8 5 6 2 6 6 3 8 4 3 5 7 8 8 8 9 9 9 8 9 8 7 7 7 6 3 3 4 5 3 2 2 4 5 4 5 7 8 10 10 8 9 15 14 14 12 13
5 6 5 4 2 6 14 11 2 3 6 5 4 6 7 7 8 9 8 10 9 9 8 9 10 7 7 5 4 3 4 6 3 5 6 4 4 4 5 8 10 13 12 15 15 17 18 14 12
2 5 6 5 1 7 2 3 6 6 9 8 6 6 7 7 8 9 9 9 9 9 10 9 8 9 7 7 7 5 6 6 7 7 4 3 3 4 9 8 8 8 11 12 15 16 16 16 14
6 8 6 8 4 7 4 8 2 5 7 8 7 7 8 7 7 6 9 11 12 12 13 14 14 11 8 6 6 5 7 5 7 6 5 5 7 8 7 10 13 14 14 11 11 11 14 16 14
1 4 2 5 2 8 5 4 5 5 6 6 7 9 10 7 9 12 15 14 15 15 15 16 18 15 11 6 4 5 5 5 5 7 9 7 7 7 9 10 11 13 13 13 13 10 14 15 17
6 3 1 2 6 9 6 6 4 4 5 6 13 13 8 9 12 13 13 14 13 14 12 15 15 15 13 7 5 5 6 6 6 5 8 9 9 8 8 10 12 10 11 11 12 11 12 14 13
3 5 3 1 4 5 9 3 3 10 8 11 13 9 10 11 11 13 13 12 11 13 11 12 13 12 8 5 5 5 5 6 5 5 6 6 7 9 10 12 12 14 13 14 13 14 13 15 15
3 2 3 5 3 3 2 7 10 6 6 9 6 8 10 10 12 12 13 12 12 16 14 12 12 10 7 6 6 5 4 5 5 5 5 5 6 7 8 12 13 14 16 16 18 18 16 17 18
Wind_Direction
100 84 73 43 61 62 281 267 235 285 305 210 213 173 202 146 165 207 292 185 145 148 151 154 152 150 148 149 143 135 131 134 133 135 135 135 137 140 141 141 142 140 137 136 136 133 135 133 131
131 90 47 82 84 62 267 263 258 224 245 306 279 198 39 293 131 311 129 184 162 151 153 151 152 151 150 152 147 143 140 139 139 139 139 142 146 148 146 147 150 144 139 139 139 140 139 140 139
115 56 80 86 104 185 216 264 273 285 265 233 298 82 123 257 222 204 219 154 134 151 158 158 154 155 156 158 156 153 151 149 148 147 149 151 152 152 152 153 148 141 142 144 143 142 140 137 135
111 20 41 83 220 255 207 255 267 312 349 81 255 293 293 125 249 225 149 151 140 151 157 159 159 160 160 160 163 160 158 157 157 157 158 158 159 160 157 151 146 143 143 143 144 143 144 136 134
39 58 68 42 255 270 247 261 259 296 284 301 173 275 266 304 6 95 115 142 146 150 152 162 160 170 175 169 169 163 161 165 165 163 164 164 164 162 155 148 144 141 146 144 149 147 142 138 134
47 101 74 243 241 251 266 238 293 308 309 324 33 11 267 306 132 139 135 151 154 155 154 168 172 175 179 172 171 169 170 167 165 166 166 166 166 160 152 149 141 136 137 142 143 144 142 140 136
120 92 207 220 252 289 246 183 346 317 323 339 135 326 288 324 232 129 143 127 127 139 149 159 174 181 182 176 174 173 173 174 168 168 168 168 166 160 157 150 140 136 139 141 143 140 142 140 133
110 99 158 243 231 275 276 346 268 351 297 291 133 267 277 241 137 103 75 72 98 143 162 165 176 182 188 188 186 186 182 178 176 173 173 168 163 159 156 150 142 139 144 149 149 141 145 141 132
134 68 207 239 182 243 280 358 238 284 266 316 249 205 251 75 122 106 117 120 182 200 201 185 189 191 193 195 193 188 191 186 179 176 172 157 164 162 158 158 146 145 151 155 150 144 142 145 128
119 147 218 210 209 266 288 307 317 347 315 291 301 223 94 147 190 163 183 192 200 201 197 194 196 195 193 198 199 198 198 194 190 185 177 173 166 161 159 163 158 155 155 154 146 146 149 144 138
170 210 220 233 226 253 284 300 225 244 292 226 286 292 272 169 223 204 207 200 205 205 201 198 195 195 195 193 190 196 197 190 194 192 182 166 157 156 170 166 150 152 150 143 134 142 156 156 140
230 243 223 278 251 300 266 298 304 208 262 253 242 261 287 217 215 217 216 214 191 191 207 204 199 198 201 203 196 194 196 190 192 193 182 173 174 173 179 184 168 154 159 146 141 141 133 132 123
203 270 285 280 302 264 260 245 245 260 253 261 266 273 250 257 240 227 224 223 202 206 200 204 194 195 193 200 198 200 195 194 193 197 186 179 185 186 173 176 176 171 171 167 150 144 138 135 131
282 271 269 278 259 249 237 279 156 279 322 301 326 304 287 275 266 280 287 264 230 226 211 193 199 200 192 201 205 201 200 193 186 189 191 192 185 184 189 184 182 162 178 181 161 158 146 141 140
282 317 317 251 256 252 171 299 227 263 327 312 320 326 28 36 25 5 338 304 254 239 208 203 203 198 199 202 206 206 199 188 194 192 194 189 181 187 185 194 193 175 161 170 149 145 135 136 134
341 32 336 298 357 285 139 276 260 302 1 320 338 2 22 41 26 340 321 305 299 265 210 200 199 202 205 205 200 203 198 194 195 189 180 188 182 193 189 191 193 184 149 163 172 159 148 147 146
355 258 282 327 6 344 48 291 294 307 360 326 356 13 22 11 21 9 345 355 333 294 249 202 198 204 209 216 209 205 201 192 209 197 198 188 183 187 187 166 179 134 151 176 186 170 162 152 145
241 272 269 248 280 353 295 267 282 331 46 19 28 16 17 14 0 346 2 5 0 6 358 281 202 215 206 204 204 187 196 209 203 208 209 186 202 201 196 170 160 150 167 136 118 231 166 157 141
194 245 255 269 265 237 260 267 269 5 64 40 39 27 16 4 319 336 359 360 14 27 33 31 75 194 178 200 201 192 199 220 225 223 212 180 198 205 219 188 155 160 173 155 143 159 302 163 135
227 253 272 280 274 163 267 251 258 24 40 53 61 28 15 0 355 357 357 3 7 14 18 43 51 38 29 339 107 116 99 298 293 287 249 189 178 179 196 188 172 175 174 165 168 161 145 145 185
238 218 245 250 323 274 292 273 180 142 151 135 35 1 19 356 352 353 355 353 5 9 357 5 10 40 45 69 45 55 81 295 29 340 277 217 178 189 191 185 189 188 198 186 180 175 169 156 208
239 247 238 247 349 247 75 291 201 175 171 110 31 22 8 8 1 351 351 353 353 345 345 357 354 12 65 82 45 36 74 179 206 196 211 208 210 201 204 194 195 197 191 181 176 172 173 163 180
266 231 240 228 225 308 196 251 66 115 171 108 35 25 13 6 2 360 357 349 340 355 354 349 358 11 349 339 147 149 205 219 233 252 239 216 183 189 212 187 185 172 174 190 170 170 170 175 188
309 306 290 52 154 261 215 193 47 162 152 119 45 22 14 4 353 357 354 351 348 349 353 346 348 339 348 337 316 261 254 258 248 231 232 203 162 173 192 179 177 174 181 181 174 181 178 171 180
88 39 316 314 335 238 15 211 294 93 85 108 80 19 6 360 357 349 349 342 328 336 334 332 331 312 315 314 309 293 260 242 256 240 240 194 175 186 201 174 175 182 195 192 194 182 186 181 178
210 167 186 272 238 267 191 249 89 99 88 72 56 27 4 334 330 330 335 337 333 325 327 321 319 305 296 289 293 299 281 277 249 255 244 226 214 209 190 199 189 192 195 194 198 182 188 180 178
350 200 265 292 74 291 209 98 346 82 71 68 52 3 332 319 329 341 339 333 328 316 309 310 301 299 290 272 286 305 274 274 273 265 253 249 234 224 195 201 208 201 197 189 188 198 191 183 184
200 201 305 49 264 250 235 219 166 114 90 47 354 333 325 334 331 323 316 309 309 299 301 295 291 283 274 304 312 303 305 303 294 278 265 254 241 222 224 204 198 202 196 191 194 191 198 187 189
228 212 122 245 219 259 288 258 131 92 51 1 323 311 299 305 304 300 293 289 293 297 290 274 274 267 290 287 298 308 314 310 313 299 296 282 263 250 232 228 226 205 200 182 202 197 193 197 194
70 347 128 225 225 218 257 265 156 126 17 341 295 302 306 299 296 300 303 297 310 312 302 294 286 292 298 299 295 300 304 320 318 322 322 329 316 311 276 234 221 224 215 200 201 205 198 190 198